Flag for Canada Weather past 2 weeks in Prince Rupert, British Columbia, Canada

Now
55 °F

Fog.


Feels Like: 55 °F
Forecast: 54 / 62 °F
Wind: 5 mph from West

Location: Prince Rupert

Current Time: Aug 4, 2015 at 12:56:52 AM

Latest Report: Aug 4, 2015 at 12:02 AM


Visibility: 0 mi

Pressure: 29.95 "Hg

Humidity: 94%

Dew point: 54 °F

Location of Prince RupertLocation

Historic Weather in Prince Rupert — Graph

°F

Prince Rupert temperature yesterday

Maximum temperature yesterday: 59 °F (at 12:00 PM)
Minimum temperature yesterday: 54 °F (at 2:00 AM)
Average temperature yesterday: 56 °F

Past Weeks' High & Low Weather Summary

 TemperatureHumidityPressure
High64 °F (Jul 20, 5:00 PM)100% (Jul 20, 12:00 AM)30.28 "Hg (Jul 20, 12:00 AM)
Low52 °F (Jul 23, 10:00 PM)64% (Jul 22, 5:00 PM)29.76 "Hg (Jul 23, 6:03 PM)
Average57 °F92%30.01 "Hg
* Reported Midnight between Jul 19 and Jul 20 — Aug 4 12:02 AM, Prince Rupert, Weather by CustomWeather, © 2015

Note: Actual official high and low records may vary slightly from our data, if they occured in-between our weather recording intervals... More about our weather records

Advertising

Prince Rupert weather history for previous 24 hours

 ConditionsComfort  
Time TempWeatherWind HumidityBarometerVisibility
12:02 AM
Tue, Aug 4
55 °FFog.5 mph94%29.95 "Hg0 mi
11:00 PM
Mon, Aug 3
55 °FFog.3 mph100%29.94 "Hg1 mi
10:00 PM55 °FLight rain. Fog.2 mph100%29.94 "Hg1 mi
9:03 PM55 °FRain. Fog.3 mph100%29.93 "Hg2 mi
8:00 PM55 °FLight rain. Fog.2 mph100%29.95 "Hg3 mi
7:00 PM55 °FLight rain. Fog.3 mph100%29.95 "Hg3 mi
6:00 PM55 °FLight rain. Fog.3 mph100%29.96 "Hg4 mi
5:00 PM57 °FLight rain. Fog.3 mph94%29.96 "Hg5 mi
4:00 PM55 °FLight rain. Fog.6 mph100%29.96 "Hg6 mi
3:59 PM55 °FLight rain. Fog.7 mph100%29.96 "Hg6 mi
3:00 PM57 °FLight rain. Fog.5 mph94%29.96 "Hg6 mi
2:00 PM57 °FLight rain. Fog.6 mph94%29.96 "Hg6 mi
1:00 PM57 °FCloudy.5 mph94%29.96 "Hg9 mi
12:00 PM59 °FMostly cloudy.8 mph88%29.96 "Hg9 mi
11:00 AM57 °FLow clouds.6 mph94%29.96 "Hg9 mi
10:47 AM57 °FLow clouds.5 mph94%29.96 "Hg9 mi
10:00 AM55 °FMostly cloudy.2 mph100%29.96 "Hg9 mi
9:00 AM55 °FLow clouds.3 mph100%29.96 "Hg7 mi
8:00 AM55 °FLow clouds.2 mph94%29.96 "Hg8 mi
7:03 AM55 °FFog.2 mph94%29.96 "Hg4 mi
6:00 AM55 °FFog.2 mph94%29.96 "Hg0 mi
5:00 AM55 °FFog.No wind94%29.96 "Hg6 mi
4:00 AM55 °FLow clouds.No wind94%29.96 "Hg9 mi
3:00 AM55 °FLow clouds.No wind94%29.97 "Hg9 mi
2:00 AM54 °FFog.No wind100%29.98 "Hg6 mi
1:03 AM55 °FFog.No wind94%29.98 "Hg5 mi
12:00 AM55 °FOvercast.2 mph94%29.99 "Hg8 mi
Weather by CustomWeather, © 2015

See weather overviewHow to use our weather pages